EW0412 Weather Reports


Display with metric or nautical units.
time (UTC)temp
F
wind
direction
speed
MPH
gust
MPH
rain 1hr
in
rain 24hr
in
rain mn
in
humidity
%
barometer
mb
20260906082027 75 0.0 0.0 0.00 0.00 0.00 89 1012.6
20260906081046 75 0.0 2.0 0.00 0.00 0.00 89 1012.6
20260906080026 75 0.0 0.0 0.00 0.00 0.00 89 1012.6
20260906075025 75 0.0 0.0 0.00 0.00 0.00 89 1012.5
20260906074026 75 0.0 3.0 0.00 0.00 0.00 87 1012.6
20260906073028 75 0.0 0.0 0.00 0.00 0.00 87 1012.7
20260906072027 76 0.0 2.0 0.00 0.00 0.00 87 1012.7
20260906071027 75 221 0.0 2.0 0.00 0.00 0.00 88 1012.6
20260906070028 75 0.0 0.0 0.00 0.00 0.00 87 1012.6
20260906065028 76 0.0 0.0 0.00 0.00 0.00 87 1012.7
20260906064027 76 0.0 0.0 0.00 0.00 0.00 86 1012.8
20260906063107 76 0.0 0.0 0.00 0.00 0.00 86 1012.8
20260906062027 76 0.0 0.0 0.00 0.00 0.00 85 1012.7
20260906061025 76 0.0 2.0 0.00 0.00 0.00 85 1012.7
20260906060026 76 221 1.0 2.0 0.00 0.00 0.00 85 1012.8
20260906055028 77 0.0 0.0 0.00 0.00 0.00 83 1012.9
20260906054026 77 0.0 0.0 0.00 0.00 0.00 82 1013.1
20260906053027 77 0.0 0.0 0.00 0.00 0.00 82 1013.2
20260906052027 78 0.0 0.0 0.00 0.00 0.00 79 1013.1
20260906051028 79 0.0 2.0 0.00 0.00 0.00 79 1013.1
20260906050026 79 221 0.0 2.0 0.00 0.00 0.00 78 1013.2
20260906045026 80 221 0.0 2.0 0.00 0.00 0.00 76 1013.2
20260906044028 80 0.0 0.0 0.00 0.00 0.00 74 1013.2
20260906043027 81 0.0 2.0 0.00 0.00 0.00 73 1013.2
20260906042028 81 221 0.0 3.0 0.00 0.00 0.00 73 1013.2
20260906041046 81 224 1.0 4.0 0.00 0.00 0.00 73 1013.1
20260906040028 81 212 1.0 4.0 0.00 0.00 0.00 72 1013.1
20260906035027 81 231 1.0 3.0 0.00 0.00 0.00 71 1013.0
20260906034026 81 195 1.0 4.0 0.00 0.00 0.00 71 1013.0
20260906033026 81 243 2.0 5.0 0.00 0.00 0.00 71 1013.0
20260906032046 82 243 2.0 5.0 0.00 0.00 0.00 70 1013.0
20260906031025 82 233 1.0 4.0 0.00 0.00 0.00 70 1013.1
20260906030028 82 232 1.0 5.0 0.00 0.00 0.00 69 1013.1
20260906025046 82 233 3.0 5.0 0.00 0.00 0.00 69 1013.0
20260906024027 83 242 2.0 4.0 0.00 0.00 0.00 69 1013.0
20260906023025 83 228 2.0 4.0 0.00 0.00 0.00 67 1012.9
20260906022026 83 225 1.0 6.0 0.00 0.00 0.00 67 1012.9
20260906021028 83 235 3.0 6.0 0.00 0.00 0.00 66 1012.7
20260906020026 84 239 2.0 4.0 0.00 0.00 0.00 65 1012.6
20260906015028 84 239 1.0 5.0 0.00 0.00 0.00 64 1012.5
20260906014028 84 228 2.0 6.0 0.00 0.00 0.00 64 1012.4
20260906013025 85 239 3.0 6.0 0.00 0.00 0.00 63 1012.4
20260906012029 85 234 3.0 5.0 0.00 0.00 0.00 63 1012.3
20260906011029 85 231 2.0 5.0 0.00 0.00 0.00 64 1012.2
20260906010028 86 233 1.0 4.0 0.00 0.00 0.00 62 1012.2
20260906005025 87 201 1.0 3.0 0.00 0.00 0.00 61 1011.9
20260906004027 87 201 1.0 4.0 0.00 0.00 0.00 60 1011.9
20260906003026 88 233 1.0 4.0 0.00 0.00 0.00 59 1011.9
20260906002026 89 220 1.0 6.0 0.00 0.00 0.00 58 1011.8
20260906001026 89 221 2.0 6.0 0.00 0.00 0.00 58 1011.7
20260906000027 90 145 1.0 5.0 0.00 0.00 0.00 57 1011.7
20260905235026 91 173 1.0 5.0 0.00 0.00 0.00 55 1011.8
20260905234028 92 158 1.0 10.0 0.00 0.00 0.00 54 1011.9
20260905233027 92 166 3.0 10.0 0.00 0.00 0.00 53 1011.9
20260905232047 93 174 2.0 6.0 0.00 0.00 0.00 52 1011.7
20260905231025 94 200 2.0 7.0 0.00 0.00 0.00 50 1011.6
20260905230029 95 221 2.0 7.0 0.00 0.00 0.00 49 1011.6
20260905225027 95 192 2.0 7.0 0.00 0.00 0.00 50 1011.5
20260905224027 96 208 2.0 5.0 0.00 0.00 0.00 49 1011.4
20260905223028 96 172 2.0 6.0 0.00 0.00 0.00 48 1011.6
20260905222026 96 175 3.0 6.0 0.00 0.00 0.00 46 1011.7
20260905221027 96 165 2.0 8.0 0.00 0.00 0.00 47 1011.7
20260905220024 96 155 3.0 8.0 0.00 0.00 0.00 46 1011.8
20260905215026 96 215 2.0 8.0 0.00 0.00 0.00 49 1011.8
20260905214025 96 167 3.0 8.0 0.00 0.00 0.00 47 1011.8
20260905213029 98 201 2.0 12.0 0.00 0.00 0.00 45 1011.9
20260905212025 99 144 5.0 12.0 0.00 0.00 0.00 37 1012.0
20260905211046 100 111 2.0 7.0 0.00 0.00 0.00 36 1011.9
20260905210026 98 127 2.0 5.0 0.00 0.00 0.00 41 1011.9
20260905205047 99 279 2.0 5.0 0.00 0.00 0.00 38 1012.1
20260905204027 99 337 3.0 5.0 0.00 0.00 0.00 40 1012.2
20260905203027 100 31 2.0 7.0 0.00 0.00 0.00 39 1012.3
20260905202026 102 73 2.0 7.0 0.00 0.00 0.00 37 1012.4
20260905201025 100 44 2.0 6.0 0.00 0.00 0.00 39 1012.5
20260905200048 100 130 1.0 6.0 0.00 0.00 0.00 39 1012.8
20260905195047 99 132 2.0 7.0 0.00 0.00 0.00 39 1012.8
20260905194026 99 130 2.0 10.0 0.00 0.00 0.00 37 1012.8
20260905193027 99 96 3.0 8.0 0.00 0.00 0.00 39 1012.8
20260905192025 99 120 2.0 8.0 0.00 0.00 0.00 39 1012.8
20260905191029 99 82 3.0 7.0 0.00 0.00 0.00 40 1013.0
20260905190106 98 64 2.0 8.0 0.00 0.00 0.00 41 1013.1
20260905185027 98 91 2.0 12.0 0.00 0.00 0.00 44 1013.4
20260905184025 99 13 2.0 6.0 0.00 0.00 0.00 43 1013.6
20260905183025 98 237 2.0 6.0 0.00 0.00 0.00 43 1013.7
20260905182028 97 38 3.0 9.0 0.00 0.00 0.00 44 1013.9
20260905181028 96 278 5.0 9.0 0.00 0.00 0.00 44 1013.9
20260905180025 96 55 2.0 6.0 0.00 0.00 0.00 43 1014.0
20260905175047 97 128 3.0 9.0 0.00 0.00 0.00 40 1014.1
20260905174025 97 24 2.0 7.0 0.00 0.00 0.00 42 1014.3
20260905173028 97 106 2.0 8.0 0.00 0.00 0.00 41 1014.5
20260905172047 97 41 3.0 8.0 0.00 0.00 0.00 44 1014.5
20260905171046 96 55 2.0 5.0 0.00 0.00 0.00 45 1014.6
20260905170026 96 156 2.0 5.0 0.00 0.00 0.00 48 1014.7
20260905164028 95 354 3.0 6.0 0.00 0.00 0.00 52 1014.8
20260905163028 96 340 1.0 5.0 0.00 0.00 0.00 50 1015.0
20260905162048 95 43 2.0 5.0 0.00 0.00 0.00 52 1015.0
20260905161026 94 7 1.0 8.0 0.00 0.00 0.00 57 1015.2
20260905160027 93 336 4.0 8.0 0.00 0.00 0.00 57 1015.3
20260905155028 93 340 2.0 5.0 0.00 0.00 0.00 60 1015.2
20260905154025 91 340 3.0 7.0 0.00 0.00 0.00 63 1015.4
20260905153027 91 344 3.0 6.0 0.00 0.00 0.00 61 1015.4
20260905152028 90 355 3.0 9.0 0.00 0.00 0.00 65 1015.5
20260905151029 89 347 4.0 9.0 0.00 0.00 0.00 65 1015.6
20260905150046 89 22 2.0 7.0 0.00 0.00 0.00 64 1015.6
20260905145027 88 355 3.0 8.0 0.00 0.00 0.00 67 1015.4
20260905144029 88 352 3.0 6.0 0.00 0.00 0.00 67 1015.4
20260905143031 87 335 2.0 6.0 0.00 0.00 0.00 69 1015.3
20260905142028 86 17 2.0 6.0 0.00 0.00 0.00 70 1015.5
20260905141028 85 347 2.0 6.0 0.00 0.00 0.00 73 1015.3
20260905140027 83 352 3.0 5.0 0.00 0.00 0.00 77 1015.3
20260905135027 82 334 3.0 9.0 0.00 0.00 0.00 78 1015.2
20260905134032 81 331 5.0 9.0 0.00 0.00 0.00 80 1015.4
20260905133026 81 345 5.0 9.0 0.00 0.00 0.00 81 1015.6
20260905132026 80 337 3.0 7.0 0.00 0.00 0.00 83 1015.6
20260905131027 78 342 3.0 6.0 0.00 0.00 0.00 86 1015.6
20260905130049 77 289 2.0 4.0 0.00 0.00 0.00 88 1015.6
20260905125027 76 276 1.0 3.0 0.00 0.00 0.00 89 1015.6
20260905124046 76 253 1.0 3.0 0.00 0.00 0.00 90 1015.5
20260905123047 75 218 0.0 3.0 0.00 0.00 0.00 90 1015.4
20260905122026 74 224 1.0 4.0 0.00 0.00 0.00 92 1015.2
20260905121046 74 241 1.0 2.0 0.00 0.00 0.00 93 1015.2
20260905120028 74 241 0.0 2.0 0.00 0.00 0.00 92 1014.9
20260905115046 74 0.0 0.0 0.00 0.00 0.00 92 1015.0
20260905114026 74 0.0 2.0 0.00 0.00 0.00 92 1014.9
20260905113027 74 241 0.0 2.0 0.00 0.00 0.00 91 1014.7
20260905112026 74 0.0 2.0 0.00 0.00 0.00 92 1014.6
20260905111027 74 241 0.0 2.0 0.00 0.00 0.00 91 1014.6
20260905110025 74 241 1.0 3.0 0.00 0.00 0.00 90 1014.4
20260905105027 74 241 1.0 3.0 0.00 0.00 0.00 90 1014.3
20260905104047 75 241 1.0 5.0 0.00 0.00 0.00 90 1014.4
20260905103045 75 243 2.0 5.0 0.00 0.00 0.00 90 1014.3
20260905102048 75 248 2.0 5.0 0.00 0.00 0.00 89 1014.5
20260905101026 75 235 2.0 5.0 0.00 0.00 0.00 89 1014.5
20260905100026 75 262 1.0 4.0 0.00 0.00 0.00 89 1014.6
20260905095026 76 273 1.0 5.0 0.00 0.00 0.00 89 1014.6
20260905094028 76 252 3.0 5.0 0.00 0.00 0.00 88 1014.4
20260905093028 76 244 2.0 5.0 0.00 0.00 0.00 88 1014.4
20260905092031 76 250 2.0 4.0 0.00 0.00 0.00 87 1014.4
20260905091048 76 236 1.0 5.0 0.00 0.00 0.00 87 1014.4
20260905090230 76 236 2.0 6.0 0.00 0.00 0.00 87 1014.4
20260905085027 76 236 3.0 6.0 0.00 0.00 0.00 87 1014.3
20260905084028 76 267 2.0 5.0 0.00 0.00 0.00 87 1014.3
20260905083025 76 280 1.0 4.0 0.00 0.00 0.00 87 1014.4